Showing default

GJZ 01, 62290

Orbit data source: Space-Track

GJZ 01, 62290 is a payload satellite owned by CASC (CN) in LEO that was launched on Thu, 12 Dec 2024 UTC via a CHANG ZHENG 2D/YZ-3 launch vehicle from the Jiuquan Satellite Launch Center, China (JSC). Payload-class satellites include a variety of spacecraft equipped with specific instruments for various scientific and technological missions. These include communications satellites like Starlink; space stations such as the ISS; scientific satellites like the Hubble; Earth observation satellites from companies like Planet Labs, Umbra, and HawkEye 360; GPS; miniature CubeSats for education and research; and military/defense satellites.

Loading next visibility...
Identifier
62290, 2024-238A
Orbit
LEO
Country
Flag of CNCN / PRC
Related business
Manufacturer
HITSAT
Mission
Operational Civil Communications
Bus & Motor
HARBFLAT, Unknown motor
Mass
~150 kg wet, ~150 kg dry
Launch date (UTC)
2024-12-12 (11 months ago)
Launch vehicle
CHANG ZHENG 2D/YZ-3
Launch site
Jiuquan Satellite Launch Center, China (JSC)
Object type
Payload
Rocket body
Debris
Shape & HBR
Box + 2 Pan, 1.5 m
Radar Cross Section
0.240 m², Large (>1 m²)

Expand to show TLE details & history
Last TLE update: 17 hours ago

TLE from 17 hours ago
0 GJZ 01
1 62290U 24238A   25301.63223961  .00000028  00000-0  15249-3 0  9995
2 62290  59.9130 267.5289 0028160  78.7080 281.7090 13.75168021 43754
Epoch: 2025-10-28T15:10Z
TLE epoch observation values (Epoch: 2025-10-28T15:10:25.502Z)
Latitude
-0.00001°
Longitude
2.70569°
Altitude
978.411 km
Speed
7.365 km/s
True Right ascension
17h 50m 06s
True Declination
0° 00' 00"
Sunlit
Object was in daylight at epoch
Visualization orbit readout
Latitude
Unknown
Longitude
Unknown
Altitude
Unknown
Speed
Unknown
Apparent Right ascension
Unknown
Apparent Declination
Unknown
Sunlit
N/A
Visualization observer readout
Local Sidereal Time
03:16:09
Azimuth
Unknown
Elevation
Unknown
Doppler factor
Unknown
Orbital elements
Apogee altitude
1,001.065 km
Perigee altitude
959.622 km
Semi-major axis
7,358.481 km
Eccentricity
0.00282
Inclination
59.913°
RAAN
267.5289°
Arg. of periapsis
78.708°
True anomaly
281.3928°
Mean anomaly
281.709°
Eccentric anomaly
281.55092°
Mean motion
3.43844 °/min
Orbital period
104.7 mins
BSTAR
0.00015249
Loading maneuver chart data...
Computing Atmospheric mass density...
Loading historical data...
Loading historical data...
Loading historical data...
Loading historical data...
Loading historical data...
Loading historical data...
Loading historical data...
Other satellites on launch #238 in the year 2024 (2024-12-12 UTC)

Documentation

Showing up to 5 results
|